Tracking 19245 objects as of 18-Aug-2018
HD Live streaming from Space Station
objects crossing your sky now

POLAR BEAR

Track POLAR BEAR now!
10-day predictions
POLAR BEAR is classified as:


NORAD ID: 17070
Int'l Code: 1986-088A
Perigee: 962.7 km
Apogee: 1,016.6 km
Inclination: 89.5 °
Period: 104.7 minutes
Semi major axis: 7360 km
RCS: 1.4926 m2 (large)
Launch date: November 14, 1986
Source: United States (US)
Launch site: AIR FORCE WESTERN TEST RANGE (AFWTR)
aabbcc
Your satellite tracking list
Your tracking list is empty




NASA's NSSDC Master Catalog

Two Line Element Set (TLE):
1 17070U 86088A   18229.24455431  .00000042  00000-0  32737-4 0  9997
2 17070  89.5313 306.0797 0036609 262.5842 155.5044 13.74760498592561
Source of the keplerian elements: AFSPC